Location: Hiekkapohja
(62.3333°N, 25.7833°E)
Time: 00:15:20
(UTC+00:00)

NOSS 5 (C) - Pass Details

Date: 07 August 2020
Orbit: 377 x 1732 km, 63.3° (Epoch: 20 September)

Event Time Altitude Azimuth Distance (km) Brightness Sun altitude
Exits shadow 00:47:10 - 256° (WSW) 2,273 7.5 -6.4°
Reaches altitude 10° 00:48:54 10° 257° (WSW) 1,518 6.6 -6.2°
Maximum altitude 00:52:07 85° 346° (NNW) 396 4.2 -6.0°
Drops below altitude 10° 00:55:05 10° 76° (ENE) 1,403 7.8 -5.8°
Sets 00:57:05 0° 77° (ENE) 2,284 8.9 -5.7°
